Year,Month,Day,Hour,Minute,Value (Times are PST for temperature in C)
2011,07,05,00,00,14.20
2011,07,05,00,01,14.20
2011,07,05,00,02,14.10
2011,07,05,00,03,14.10
2011,07,05,00,04,14.10
2011,07,05,00,05,14.10
2011,07,05,00,06,14.00
2011,07,05,00,07,14.00
2011,07,05,00,08,14.00
2011,07,05,00,09,14.00
2011,07,05,00,10,14.00
2011,07,05,00,11,13.90
2011,07,05,00,12,13.90
2011,07,05,00,13,13.90
2011,07,05,00,14,13.90
2011,07,05,00,15,13.80
2011,07,05,00,16,13.80
2011,07,05,00,17,13.80
2011,07,05,00,18,13.70
2011,07,05,00,19,13.70
2011,07,05,00,20,13.70
2011,07,05,00,21,13.70
2011,07,05,00,22,13.70
2011,07,05,00,23,13.60
2011,07,05,00,24,13.60
2011,07,05,00,25,13.60
2011,07,05,00,26,13.60
2011,07,05,00,27,13.50
2011,07,05,00,28,13.50
2011,07,05,00,29,13.50
2011,07,05,00,30,13.50
2011,07,05,00,31,13.50
2011,07,05,00,32,13.50
2011,07,05,00,33,13.40
2011,07,05,00,34,13.40
2011,07,05,00,35,13.40
2011,07,05,00,36,13.40
2011,07,05,00,37,13.40
2011,07,05,00,38,13.40
2011,07,05,00,39,13.30
2011,07,05,00,40,13.30
2011,07,05,00,41,13.30
2011,07,05,00,42,13.30
2011,07,05,00,43,13.30
2011,07,05,00,44,13.30
2011,07,05,00,45,13.30
2011,07,05,00,46,13.20
2011,07,05,00,47,13.20
2011,07,05,00,48,13.20
2011,07,05,00,49,13.10
2011,07,05,00,50,13.10
2011,07,05,00,51,13.10
2011,07,05,00,52,13.00
2011,07,05,00,53,13.00
2011,07,05,00,54,13.00
2011,07,05,00,55,13.00
2011,07,05,00,56,12.90
2011,07,05,00,57,12.90
2011,07,05,00,58,12.90
2011,07,05,00,59,12.90
2011,07,05,01,00,12.90
2011,07,05,01,01,12.80
2011,07,05,01,02,12.80
2011,07,05,01,03,12.80
2011,07,05,01,04,12.80
2011,07,05,01,05,12.80
2011,07,05,01,06,12.70
2011,07,05,01,07,12.70
2011,07,05,01,08,12.60
2011,07,05,01,09,12.60
2011,07,05,01,10,12.50
2011,07,05,01,11,12.50
2011,07,05,01,12,12.50
2011,07,05,01,13,12.40
2011,07,05,01,14,12.40
2011,07,05,01,15,12.40
2011,07,05,01,16,12.30
2011,07,05,01,17,12.30
2011,07,05,01,18,12.30
2011,07,05,01,19,12.30
2011,07,05,01,20,12.30
2011,07,05,01,21,12.30
2011,07,05,01,22,12.30
2011,07,05,01,23,12.30
2011,07,05,01,24,12.30
2011,07,05,01,25,12.30
2011,07,05,01,26,12.30
2011,07,05,01,27,12.30
2011,07,05,01,28,12.20
2011,07,05,01,29,12.20
2011,07,05,01,30,12.20
2011,07,05,01,31,12.20
2011,07,05,01,32,12.20
2011,07,05,01,33,12.20
2011,07,05,01,34,12.20
2011,07,05,01,35,12.20
2011,07,05,01,36,12.20
2011,07,05,01,37,12.10
2011,07,05,01,38,12.10
2011,07,05,01,39,12.10
2011,07,05,01,40,12.10
2011,07,05,01,41,12.10
2011,07,05,01,42,12.00
2011,07,05,01,43,12.00
2011,07,05,01,44,12.00
2011,07,05,01,45,12.00
2011,07,05,01,46,12.00
2011,07,05,01,47,12.00
2011,07,05,01,48,11.90
2011,07,05,01,49,11.90
2011,07,05,01,50,11.90
2011,07,05,01,51,11.90
2011,07,05,01,52,11.90
2011,07,05,01,53,11.90
2011,07,05,01,54,11.90
2011,07,05,01,55,11.90
2011,07,05,01,56,12.00
2011,07,05,01,57,12.00
2011,07,05,01,58,12.00
2011,07,05,01,59,12.00
2011,07,05,02,00,12.00
2011,07,05,02,01,12.00
2011,07,05,02,02,11.90
2011,07,05,02,03,11.90
2011,07,05,02,04,11.90
2011,07,05,02,05,11.90
2011,07,05,02,06,11.90
2011,07,05,02,07,11.80
2011,07,05,02,08,11.80
2011,07,05,02,09,11.80
2011,07,05,02,10,11.80
2011,07,05,02,11,11.80
2011,07,05,02,12,11.70
2011,07,05,02,13,11.70
2011,07,05,02,14,11.60
2011,07,05,02,15,11.60
2011,07,05,02,16,11.60
2011,07,05,02,17,11.50
2011,07,05,02,18,11.40
2011,07,05,02,19,11.40
2011,07,05,02,20,11.30
2011,07,05,02,21,11.30
2011,07,05,02,22,11.30
2011,07,05,02,23,11.20
2011,07,05,02,24,11.20
2011,07,05,02,25,11.10
2011,07,05,02,26,11.10
2011,07,05,02,27,11.10
2011,07,05,02,28,11.10
2011,07,05,02,29,11.10
2011,07,05,02,30,11.00
2011,07,05,02,31,10.90
2011,07,05,02,32,10.90
2011,07,05,02,33,10.90
2011,07,05,02,34,10.90
2011,07,05,02,35,10.90
2011,07,05,02,36,10.90
2011,07,05,02,37,10.90
2011,07,05,02,38,10.90
2011,07,05,02,39,10.90
2011,07,05,02,40,10.90
2011,07,05,02,41,10.90
2011,07,05,02,42,10.90
2011,07,05,02,43,10.90
2011,07,05,02,44,10.90
2011,07,05,02,45,10.90
2011,07,05,02,46,10.80
2011,07,05,02,47,10.80
2011,07,05,02,48,10.80
2011,07,05,02,49,10.80
2011,07,05,02,50,10.70
2011,07,05,02,51,10.70
2011,07,05,02,52,10.70
2011,07,05,02,53,10.60
2011,07,05,02,54,10.60
2011,07,05,02,55,10.60
2011,07,05,02,56,10.60
2011,07,05,02,57,10.60
2011,07,05,02,58,10.60
2011,07,05,02,59,10.60
2011,07,05,03,00,10.50
2011,07,05,03,01,10.40
2011,07,05,03,02,10.40
2011,07,05,03,03,10.40
2011,07,05,03,04,10.40
2011,07,05,03,05,10.40
2011,07,05,03,06,10.40
2011,07,05,03,07,10.40
2011,07,05,03,08,10.40
2011,07,05,03,09,10.40
2011,07,05,03,10,10.40
2011,07,05,03,11,10.40
2011,07,05,03,12,10.40
2011,07,05,03,13,10.40
2011,07,05,03,14,10.30
2011,07,05,03,15,10.30
2011,07,05,03,16,10.30
2011,07,05,03,17,10.20
2011,07,05,03,18,10.20
2011,07,05,03,19,10.20
2011,07,05,03,20,10.10
2011,07,05,03,21,10.10
2011,07,05,03,22,10.10
2011,07,05,03,23,10.10
2011,07,05,03,24,10.10
2011,07,05,03,25,10.10
2011,07,05,03,26,10.10
2011,07,05,03,27,10.10
2011,07,05,03,28,10.10
2011,07,05,03,29,10.10
2011,07,05,03,30,10.10
2011,07,05,03,31,10.10
2011,07,05,03,32,10.10
2011,07,05,03,33,10.10
2011,07,05,03,34,10.10
2011,07,05,03,35,10.10
2011,07,05,03,36,10.10
2011,07,05,03,37,10.10
2011,07,05,03,38,10.10
2011,07,05,03,39,10.10
2011,07,05,03,40,10.10
2011,07,05,03,41,10.10
2011,07,05,03,42,10.10
2011,07,05,03,43,10.10
2011,07,05,03,44,10.10
2011,07,05,03,45,10.10
2011,07,05,03,46,10.10
2011,07,05,03,47,10.10
2011,07,05,03,48,10.10
2011,07,05,03,49,10.10
2011,07,05,03,50,10.10
2011,07,05,03,51,10.10
2011,07,05,03,52,10.10
2011,07,05,03,53,10.10
2011,07,05,03,54,10.10
2011,07,05,03,55,10.10
2011,07,05,03,56,10.10
2011,07,05,03,57,10.00
2011,07,05,03,58,9.90
2011,07,05,03,59,9.90
2011,07,05,04,00,9.90
2011,07,05,04,01,9.90
2011,07,05,04,02,9.90
2011,07,05,04,03,9.90
2011,07,05,04,04,9.90
2011,07,05,04,05,9.90
2011,07,05,04,06,9.90
2011,07,05,04,07,9.90
2011,07,05,04,08,9.90
2011,07,05,04,09,9.80
2011,07,05,04,10,9.80
2011,07,05,04,11,9.80
2011,07,05,04,12,9.70
2011,07,05,04,13,9.70
2011,07,05,04,14,9.70
2011,07,05,04,15,9.70
2011,07,05,04,16,9.70
2011,07,05,04,17,9.70
2011,07,05,04,18,9.70
2011,07,05,04,19,9.70
2011,07,05,04,20,9.70
2011,07,05,04,21,9.70
2011,07,05,04,22,9.70
2011,07,05,04,23,9.70
2011,07,05,04,24,9.70
2011,07,05,04,25,9.70
2011,07,05,04,26,9.70
2011,07,05,04,27,9.70
2011,07,05,04,28,9.70
2011,07,05,04,29,9.60
2011,07,05,04,30,9.60
2011,07,05,04,31,9.60
2011,07,05,04,32,9.60
2011,07,05,04,33,9.60
2011,07,05,04,34,9.60
2011,07,05,04,35,9.60
2011,07,05,04,36,9.60
2011,07,05,04,37,9.60
2011,07,05,04,38,9.60
2011,07,05,04,39,9.60
2011,07,05,04,40,9.60
2011,07,05,04,41,9.60
2011,07,05,04,42,9.60
2011,07,05,04,43,9.60
2011,07,05,04,44,9.60
2011,07,05,04,45,9.60
2011,07,05,04,46,9.60
2011,07,05,04,47,9.60
2011,07,05,04,48,9.70
2011,07,05,04,49,9.70
2011,07,05,04,50,9.70
2011,07,05,04,51,9.70
2011,07,05,04,52,9.60
2011,07,05,04,53,9.60
2011,07,05,04,54,9.60
2011,07,05,04,55,9.60
2011,07,05,04,56,9.60
2011,07,05,04,57,9.60
2011,07,05,04,58,9.60
2011,07,05,04,59,9.60
2011,07,05,05,00,9.60
2011,07,05,05,01,9.60
2011,07,05,05,02,9.50
2011,07,05,05,03,9.50
2011,07,05,05,04,9.50
2011,07,05,05,05,9.60
2011,07,05,05,06,9.60
2011,07,05,05,07,9.60
2011,07,05,05,08,9.60
2011,07,05,05,09,9.60
2011,07,05,05,10,9.60
2011,07,05,05,11,9.60
2011,07,05,05,12,9.60
2011,07,05,05,13,9.60
2011,07,05,05,14,9.50
2011,07,05,05,15,9.50
2011,07,05,05,16,9.50
2011,07,05,05,17,9.50
2011,07,05,05,18,9.40
2011,07,05,05,19,9.40
2011,07,05,05,20,9.40
2011,07,05,05,21,9.30
2011,07,05,05,22,9.30
2011,07,05,05,23,9.20
2011,07,05,05,24,9.20
2011,07,05,05,25,9.20
2011,07,05,05,26,9.20
2011,07,05,05,27,9.20
2011,07,05,05,28,9.20
2011,07,05,05,29,9.10
2011,07,05,05,30,9.10
2011,07,05,05,31,9.10
2011,07,05,05,32,9.10
2011,07,05,05,33,9.10
2011,07,05,05,34,9.00
2011,07,05,05,35,9.00
2011,07,05,05,36,9.00
2011,07,05,05,37,9.00
2011,07,05,05,38,9.00
2011,07,05,05,39,9.00
2011,07,05,05,40,9.00
2011,07,05,05,41,9.00
2011,07,05,05,42,9.00
2011,07,05,05,43,9.00
2011,07,05,05,44,9.10
2011,07,05,05,45,9.10
2011,07,05,05,46,9.10
2011,07,05,05,47,9.10
2011,07,05,05,48,9.20
2011,07,05,05,49,9.20
2011,07,05,05,50,9.20
2011,07,05,05,51,9.20
2011,07,05,05,52,9.20
2011,07,05,05,53,9.20
2011,07,05,05,54,9.20
2011,07,05,05,55,9.30
2011,07,05,05,56,9.30
2011,07,05,05,57,9.30
2011,07,05,05,58,9.40
2011,07,05,05,59,9.40
2011,07,05,06,00,9.40
2011,07,05,06,01,9.50
2011,07,05,06,02,9.50
2011,07,05,06,03,9.50
2011,07,05,06,04,9.50
2011,07,05,06,05,9.60
2011,07,05,06,06,9.60
2011,07,05,06,07,9.60
2011,07,05,06,08,9.60
2011,07,05,06,09,9.70
2011,07,05,06,10,9.70
2011,07,05,06,11,9.70
2011,07,05,06,12,9.70
2011,07,05,06,13,9.70
2011,07,05,06,14,9.70
2011,07,05,06,15,9.80
2011,07,05,06,16,9.80
2011,07,05,06,17,9.80
2011,07,05,06,18,9.80
2011,07,05,06,19,9.90
2011,07,05,06,20,9.90
2011,07,05,06,21,9.90
2011,07,05,06,22,9.90
2011,07,05,06,23,9.90
2011,07,05,06,24,10.10
2011,07,05,06,25,10.10
2011,07,05,06,26,10.10
2011,07,05,06,27,10.10
2011,07,05,06,28,10.20
2011,07,05,06,29,10.20
2011,07,05,06,30,10.30
2011,07,05,06,31,10.30
2011,07,05,06,32,10.40
2011,07,05,06,33,10.40
2011,07,05,06,34,10.50
2011,07,05,06,35,10.60
2011,07,05,06,36,10.60
2011,07,05,06,37,10.60
2011,07,05,06,38,10.70
2011,07,05,06,39,10.80
2011,07,05,06,40,10.90
2011,07,05,06,41,10.90
2011,07,05,06,42,11.00
2011,07,05,06,43,11.10
2011,07,05,06,44,11.20
2011,07,05,06,45,11.20
2011,07,05,06,46,11.30
2011,07,05,06,47,11.40
2011,07,05,06,48,11.40
2011,07,05,06,49,11.50
2011,07,05,06,50,11.60
2011,07,05,06,51,11.60
2011,07,05,06,52,11.60
2011,07,05,06,53,11.70
2011,07,05,06,54,11.70
2011,07,05,06,55,11.80
2011,07,05,06,56,11.80
2011,07,05,06,57,11.80
2011,07,05,06,58,11.90
2011,07,05,06,59,12.00
2011,07,05,07,00,12.10
2011,07,05,07,01,12.20
2011,07,05,07,02,12.20
2011,07,05,07,03,12.30
2011,07,05,07,04,12.40
2011,07,05,07,05,12.50
2011,07,05,07,06,12.70
2011,07,05,07,07,12.90
2011,07,05,07,08,13.00
2011,07,05,07,09,13.20
2011,07,05,07,10,13.30
2011,07,05,07,11,13.50
2011,07,05,07,12,13.60
2011,07,05,07,13,13.70
2011,07,05,07,14,13.80
2011,07,05,07,15,13.90
2011,07,05,07,16,14.00
2011,07,05,07,17,14.10
2011,07,05,07,18,14.20
2011,07,05,07,19,14.20
2011,07,05,07,20,14.30
2011,07,05,07,21,14.40
2011,07,05,07,22,14.40
2011,07,05,07,23,14.40
2011,07,05,07,24,14.40
2011,07,05,07,25,14.50
2011,07,05,07,26,14.50
2011,07,05,07,27,14.60
2011,07,05,07,28,14.60
2011,07,05,07,29,14.60
2011,07,05,07,30,14.70
2011,07,05,07,31,14.80
2011,07,05,07,32,14.80
2011,07,05,07,33,14.80
2011,07,05,07,34,14.90
2011,07,05,07,35,14.90
2011,07,05,07,36,14.90
2011,07,05,07,37,14.90
2011,07,05,07,38,14.90
2011,07,05,07,39,14.90
2011,07,05,07,40,14.90
2011,07,05,07,41,15.00
2011,07,05,07,42,15.10
2011,07,05,07,43,15.10
2011,07,05,07,44,15.20
2011,07,05,07,45,15.20
2011,07,05,07,46,15.30
2011,07,05,07,47,15.30
2011,07,05,07,48,15.40
2011,07,05,07,49,15.50
2011,07,05,07,50,15.50
2011,07,05,07,51,15.60
2011,07,05,07,52,15.60
2011,07,05,07,53,15.60
2011,07,05,07,54,15.60
2011,07,05,07,55,15.60
2011,07,05,07,56,15.70
2011,07,05,07,57,15.80
2011,07,05,07,58,15.80
2011,07,05,07,59,15.90
2011,07,05,08,00,15.90
2011,07,05,08,01,15.90
2011,07,05,08,02,15.90
2011,07,05,08,03,16.00
2011,07,05,08,04,16.10
2011,07,05,08,05,16.10
2011,07,05,08,06,16.10
2011,07,05,08,07,16.10
2011,07,05,08,08,16.10
2011,07,05,08,09,16.10
2011,07,05,08,10,16.20
2011,07,05,08,11,16.30
2011,07,05,08,12,16.40
2011,07,05,08,13,16.40
2011,07,05,08,14,16.50
2011,07,05,08,15,16.60
2011,07,05,08,16,16.70
2011,07,05,08,17,16.70
2011,07,05,08,18,16.80
2011,07,05,08,19,16.80
2011,07,05,08,20,16.90
2011,07,05,08,21,16.90
2011,07,05,08,22,16.90
2011,07,05,08,23,17.00
2011,07,05,08,24,17.00
2011,07,05,08,25,17.00
2011,07,05,08,26,17.00
2011,07,05,08,27,17.00
2011,07,05,08,28,17.00
2011,07,05,08,29,17.10
2011,07,05,08,30,17.10
2011,07,05,08,31,17.20
2011,07,05,08,32,17.20
2011,07,05,08,33,17.10
2011,07,05,08,34,17.00
2011,07,05,08,35,17.00
2011,07,05,08,36,16.90
2011,07,05,08,37,16.80
2011,07,05,08,38,16.80
2011,07,05,08,39,16.80
2011,07,05,08,40,16.80
2011,07,05,08,41,16.80
2011,07,05,08,42,16.90
2011,07,05,08,43,16.90
2011,07,05,08,44,16.90
2011,07,05,08,45,17.00
2011,07,05,08,46,17.00
2011,07,05,08,47,17.00
2011,07,05,08,48,17.00
2011,07,05,08,49,17.00
2011,07,05,08,50,17.00
2011,07,05,08,51,17.10
2011,07,05,08,52,17.20
2011,07,05,08,53,17.20
2011,07,05,08,54,17.20
2011,07,05,08,55,17.30
2011,07,05,08,56,17.20
2011,07,05,08,57,17.20
2011,07,05,08,58,17.20
2011,07,05,08,59,17.20
2011,07,05,09,00,17.20
2011,07,05,09,01,17.30
2011,07,05,09,02,17.30
2011,07,05,09,03,17.30
2011,07,05,09,04,17.30
2011,07,05,09,05,17.30
2011,07,05,09,06,17.20
2011,07,05,09,07,17.00
2011,07,05,09,08,17.00
2011,07,05,09,09,16.90
2011,07,05,09,10,16.90
2011,07,05,09,11,16.90
2011,07,05,09,12,16.90
2011,07,05,09,13,16.90
2011,07,05,09,14,16.90
2011,07,05,09,15,16.80
2011,07,05,09,16,16.80
2011,07,05,09,17,16.70
2011,07,05,09,18,16.60
2011,07,05,09,19,16.60
2011,07,05,09,20,16.60
2011,07,05,09,21,16.70
2011,07,05,09,22,16.80
2011,07,05,09,23,16.80
2011,07,05,09,24,16.80
2011,07,05,09,25,16.80
2011,07,05,09,26,16.80
2011,07,05,09,27,16.80
2011,07,05,09,28,16.70
2011,07,05,09,29,16.60
2011,07,05,09,30,16.60
2011,07,05,09,31,16.50
2011,07,05,09,32,16.40
2011,07,05,09,33,16.40
2011,07,05,09,34,16.40
2011,07,05,09,35,16.50
2011,07,05,09,36,16.70
2011,07,05,09,37,16.70
2011,07,05,09,38,16.70
2011,07,05,09,39,16.80
2011,07,05,09,40,16.80
2011,07,05,09,41,16.90
2011,07,05,09,42,17.00
2011,07,05,09,43,17.00
2011,07,05,09,44,17.10
2011,07,05,09,45,17.20
2011,07,05,09,46,17.20
2011,07,05,09,47,17.30
2011,07,05,09,48,17.10
2011,07,05,09,49,17.00
2011,07,05,09,50,17.00
2011,07,05,09,51,17.00
2011,07,05,09,52,17.00
2011,07,05,09,53,17.10
2011,07,05,09,54,17.20
2011,07,05,09,55,17.30
2011,07,05,09,56,17.30
2011,07,05,09,57,17.40
2011,07,05,09,58,17.50
2011,07,05,09,59,17.60
2011,07,05,10,00,17.60
2011,07,05,10,01,17.60
2011,07,05,10,02,17.50
2011,07,05,10,03,17.40
2011,07,05,10,04,17.30
2011,07,05,10,05,17.30
2011,07,05,10,06,17.30
2011,07,05,10,07,17.50
2011,07,05,10,08,17.60
2011,07,05,10,09,17.70
2011,07,05,10,10,17.60
2011,07,05,10,11,17.60
2011,07,05,10,12,17.60
2011,07,05,10,13,17.60
2011,07,05,10,14,17.70
2011,07,05,10,15,17.80
2011,07,05,10,16,17.80
2011,07,05,10,17,17.90
2011,07,05,10,18,18.00
2011,07,05,10,19,18.10
2011,07,05,10,20,18.10
2011,07,05,10,21,18.00
2011,07,05,10,22,17.90
2011,07,05,10,23,18.00
2011,07,05,10,24,18.10
2011,07,05,10,25,18.20
2011,07,05,10,26,18.30
2011,07,05,10,27,18.40
2011,07,05,10,28,18.40
2011,07,05,10,29,18.60
2011,07,05,10,30,18.70
2011,07,05,10,31,18.70
2011,07,05,10,32,18.70
2011,07,05,10,33,18.70
2011,07,05,10,34,18.70
2011,07,05,10,35,18.80
2011,07,05,10,36,18.90
2011,07,05,10,37,18.90
2011,07,05,10,38,19.00
2011,07,05,10,39,19.10
2011,07,05,10,40,19.10
2011,07,05,10,41,19.10
2011,07,05,10,42,19.10
2011,07,05,10,43,19.20
2011,07,05,10,44,19.20
2011,07,05,10,45,19.20
2011,07,05,10,46,19.10
2011,07,05,10,47,19.10
2011,07,05,10,48,19.10
2011,07,05,10,49,19.10
2011,07,05,10,50,19.10
2011,07,05,10,51,19.30
2011,07,05,10,52,19.40
2011,07,05,10,53,19.50
2011,07,05,10,54,19.50
2011,07,05,10,55,19.50
2011,07,05,10,56,19.50
2011,07,05,10,57,19.50
2011,07,05,10,58,19.50
2011,07,05,10,59,19.40
2011,07,05,11,00,19.40
2011,07,05,11,01,19.50
2011,07,05,11,02,19.50
2011,07,05,11,03,19.50
2011,07,05,11,04,19.40
2011,07,05,11,05,19.50
2011,07,05,11,06,19.60
2011,07,05,11,07,19.70
2011,07,05,11,08,19.70
2011,07,05,11,09,19.70
2011,07,05,11,10,19.70
2011,07,05,11,11,19.70
2011,07,05,11,12,19.60
2011,07,05,11,13,19.50
2011,07,05,11,14,19.50
2011,07,05,11,15,19.50
2011,07,05,11,16,19.50
2011,07,05,11,17,19.50
2011,07,05,11,18,19.40
2011,07,05,11,19,19.50
2011,07,05,11,20,19.50
2011,07,05,11,21,19.60
2011,07,05,11,22,19.70
2011,07,05,11,23,19.70
2011,07,05,11,24,19.60
2011,07,05,11,25,19.60
2011,07,05,11,26,19.60
2011,07,05,11,27,19.50
2011,07,05,11,28,19.50
2011,07,05,11,29,19.50
2011,07,05,11,30,19.50
2011,07,05,11,31,19.50
2011,07,05,11,32,19.50
2011,07,05,11,33,19.40
2011,07,05,11,34,19.50
2011,07,05,11,35,19.40
2011,07,05,11,36,19.40
2011,07,05,11,37,19.50
2011,07,05,11,38,19.60
2011,07,05,11,39,19.60
2011,07,05,11,40,19.60
2011,07,05,11,41,19.60
2011,07,05,11,42,19.60
2011,07,05,11,43,19.70
2011,07,05,11,44,19.70
2011,07,05,11,45,19.60
2011,07,05,11,46,19.70
2011,07,05,11,47,19.80
2011,07,05,11,48,19.80
2011,07,05,11,49,19.80
2011,07,05,11,50,19.80
2011,07,05,11,51,19.90
2011,07,05,11,52,19.80
2011,07,05,11,53,19.70
2011,07,05,11,54,19.70
2011,07,05,11,55,19.70
2011,07,05,11,56,19.60
2011,07,05,11,57,19.70
2011,07,05,11,58,19.80
2011,07,05,11,59,19.90
2011,07,05,12,00,19.90
2011,07,05,12,01,20.00
2011,07,05,12,02,20.20
2011,07,05,12,03,20.30
2011,07,05,12,04,20.40
2011,07,05,12,05,20.60
2011,07,05,12,06,20.60
2011,07,05,12,07,20.70
2011,07,05,12,08,20.80
2011,07,05,12,09,21.10
2011,07,05,12,10,21.30
2011,07,05,12,11,21.50
2011,07,05,12,12,21.60
2011,07,05,12,13,21.60
2011,07,05,12,14,21.60
2011,07,05,12,15,21.70
2011,07,05,12,16,21.70
2011,07,05,12,17,21.70
2011,07,05,12,18,21.70
2011,07,05,12,19,21.80
2011,07,05,12,20,21.80
2011,07,05,12,21,21.80
2011,07,05,12,22,21.90
2011,07,05,12,23,21.90
2011,07,05,12,24,21.80
2011,07,05,12,25,21.80
2011,07,05,12,26,21.70
2011,07,05,12,27,21.60
2011,07,05,12,28,21.60
2011,07,05,12,29,21.60
2011,07,05,12,30,21.50
2011,07,05,12,31,21.30
2011,07,05,12,32,21.30
2011,07,05,12,33,21.30
2011,07,05,12,34,21.30
2011,07,05,12,35,21.20
2011,07,05,12,36,21.10
2011,07,05,12,37,21.00
2011,07,05,12,38,21.00
2011,07,05,12,39,20.90
2011,07,05,12,40,20.90
2011,07,05,12,41,21.00
2011,07,05,12,42,21.10
2011,07,05,12,43,21.10
2011,07,05,12,44,21.20
2011,07,05,12,45,21.10
2011,07,05,12,46,21.10
2011,07,05,12,47,21.20
2011,07,05,12,48,21.20
2011,07,05,12,49,21.10
2011,07,05,12,50,21.00
2011,07,05,12,51,20.90
2011,07,05,12,52,20.90
2011,07,05,12,53,20.90
2011,07,05,12,54,21.00
2011,07,05,12,55,21.20
2011,07,05,12,56,21.20
2011,07,05,12,57,21.30
2011,07,05,12,58,21.20
2011,07,05,12,59,21.10
2011,07,05,13,00,21.10
2011,07,05,13,01,21.10
2011,07,05,13,02,21.20
2011,07,05,13,03,21.30
2011,07,05,13,04,21.30
2011,07,05,13,05,21.30
2011,07,05,13,06,21.30
2011,07,05,13,07,21.30
2011,07,05,13,08,21.30
2011,07,05,13,09,21.40
2011,07,05,13,10,21.50
2011,07,05,13,11,21.60
2011,07,05,13,12,21.60
2011,07,05,13,13,21.60
2011,07,05,13,14,21.70
2011,07,05,13,15,21.80
2011,07,05,13,16,21.90
2011,07,05,13,17,21.90
2011,07,05,13,18,21.90
2011,07,05,13,19,21.90
2011,07,05,13,20,22.00
2011,07,05,13,21,22.10
2011,07,05,13,22,22.30
2011,07,05,13,23,22.40
2011,07,05,13,24,22.50
2011,07,05,13,25,22.50
2011,07,05,13,26,22.50
2011,07,05,13,27,22.50
2011,07,05,13,28,22.30
2011,07,05,13,29,22.10
2011,07,05,13,30,22.00
2011,07,05,13,31,22.00
2011,07,05,13,32,21.90
2011,07,05,13,33,21.80
2011,07,05,13,34,21.70
2011,07,05,13,35,21.60
2011,07,05,13,36,21.60
2011,07,05,13,37,21.60
2011,07,05,13,38,21.50
2011,07,05,13,39,21.50
2011,07,05,13,40,21.70
2011,07,05,13,41,21.80
2011,07,05,13,42,21.80
2011,07,05,13,43,21.80
2011,07,05,13,44,22.00
2011,07,05,13,45,22.00
2011,07,05,13,46,21.80
2011,07,05,13,47,21.70
2011,07,05,13,48,21.60
2011,07,05,13,49,21.70
2011,07,05,13,50,21.80
2011,07,05,13,51,21.70
2011,07,05,13,52,21.70
2011,07,05,13,53,21.70
2011,07,05,13,54,21.70
2011,07,05,13,55,21.70
2011,07,05,13,56,21.70
2011,07,05,13,57,21.70
2011,07,05,13,58,21.70
2011,07,05,13,59,21.90
2011,07,05,14,00,22.10
2011,07,05,14,01,22.20
2011,07,05,14,02,22.20
2011,07,05,14,03,22.10
2011,07,05,14,04,22.10
2011,07,05,14,05,22.10
2011,07,05,14,06,22.20
2011,07,05,14,07,22.20
2011,07,05,14,08,22.30
2011,07,05,14,09,22.30
2011,07,05,14,10,22.30
2011,07,05,14,11,22.20
2011,07,05,14,12,22.10
2011,07,05,14,13,22.20
2011,07,05,14,14,22.30
2011,07,05,14,15,22.30
2011,07,05,14,16,22.30
2011,07,05,14,17,22.40
2011,07,05,14,18,22.40
2011,07,05,14,19,22.30
2011,07,05,14,20,22.30
2011,07,05,14,21,22.30
2011,07,05,14,22,22.20
2011,07,05,14,23,22.20
2011,07,05,14,24,22.10
2011,07,05,14,25,22.00
2011,07,05,14,26,22.00
2011,07,05,14,27,22.00
2011,07,05,14,28,22.00
2011,07,05,14,29,22.00
2011,07,05,14,30,22.10
2011,07,05,14,31,22.10
2011,07,05,14,32,22.20
2011,07,05,14,33,22.30
2011,07,05,14,34,22.30
2011,07,05,14,35,22.30
2011,07,05,14,36,22.40
2011,07,05,14,37,22.50
2011,07,05,14,38,22.60
2011,07,05,14,39,22.70
2011,07,05,14,40,22.70
2011,07,05,14,41,22.80
2011,07,05,14,42,22.90
2011,07,05,14,43,23.00
2011,07,05,14,44,23.00
2011,07,05,14,45,23.00
2011,07,05,14,46,22.90
2011,07,05,14,47,22.90
2011,07,05,14,48,22.90
2011,07,05,14,49,22.90
2011,07,05,14,50,22.90
2011,07,05,14,51,22.80
2011,07,05,14,52,22.80
2011,07,05,14,53,22.80
2011,07,05,14,54,22.80
2011,07,05,14,55,22.80
2011,07,05,14,56,22.90
2011,07,05,14,57,22.70
2011,07,05,14,58,22.60
2011,07,05,14,59,22.60
2011,07,05,15,00,22.50
2011,07,05,15,01,22.30
2011,07,05,15,02,22.10
2011,07,05,15,03,22.00
2011,07,05,15,04,21.90
2011,07,05,15,05,21.70
2011,07,05,15,06,21.70
2011,07,05,15,07,21.70
2011,07,05,15,08,21.60
2011,07,05,15,09,21.60
2011,07,05,15,10,21.60
2011,07,05,15,11,21.60
2011,07,05,15,12,21.60
2011,07,05,15,13,21.60
2011,07,05,15,14,21.70
2011,07,05,15,15,21.80
2011,07,05,15,16,21.90
2011,07,05,15,17,22.00
2011,07,05,15,18,22.10
2011,07,05,15,19,22.20
2011,07,05,15,20,22.20
2011,07,05,15,21,22.30
2011,07,05,15,22,22.40
2011,07,05,15,23,22.60
2011,07,05,15,24,22.70
2011,07,05,15,25,22.90
2011,07,05,15,26,23.00
2011,07,05,15,27,23.10
2011,07,05,15,28,22.90
2011,07,05,15,29,22.80
2011,07,05,15,30,22.60
2011,07,05,15,31,22.60
2011,07,05,15,32,22.50
2011,07,05,15,33,22.30
2011,07,05,15,34,22.30
2011,07,05,15,35,22.30
2011,07,05,15,36,22.40
2011,07,05,15,37,22.50
2011,07,05,15,38,22.60
2011,07,05,15,39,22.60
2011,07,05,15,40,22.70
2011,07,05,15,41,22.70
2011,07,05,15,42,22.70
2011,07,05,15,43,22.70
2011,07,05,15,44,22.80
2011,07,05,15,45,22.90
2011,07,05,15,46,23.00
2011,07,05,15,47,23.10
2011,07,05,15,48,23.10
2011,07,05,15,49,23.10
2011,07,05,15,50,23.20
2011,07,05,15,51,23.30
2011,07,05,15,52,23.30
2011,07,05,15,53,23.30
2011,07,05,15,54,23.30
2011,07,05,15,55,23.30
2011,07,05,15,56,23.20
2011,07,05,15,57,23.00
2011,07,05,15,58,22.90
2011,07,05,15,59,22.80
2011,07,05,16,00,22.70
2011,07,05,16,01,22.70
2011,07,05,16,02,22.70
2011,07,05,16,03,22.90
2011,07,05,16,04,22.90
2011,07,05,16,05,22.90
2011,07,05,16,06,22.80
2011,07,05,16,07,22.60
2011,07,05,16,08,22.50
2011,07,05,16,09,22.40
2011,07,05,16,10,22.40
2011,07,05,16,11,22.50
2011,07,05,16,12,22.60
2011,07,05,16,13,22.60
2011,07,05,16,14,22.60
2011,07,05,16,15,22.60
2011,07,05,16,16,22.70
2011,07,05,16,17,22.70
2011,07,05,16,18,22.70
2011,07,05,16,19,22.70
2011,07,05,16,20,22.80
2011,07,05,16,21,22.80
2011,07,05,16,22,22.80
2011,07,05,16,23,22.90
2011,07,05,16,24,22.90
2011,07,05,16,25,22.90
2011,07,05,16,26,22.90
2011,07,05,16,27,22.80
2011,07,05,16,28,22.80
2011,07,05,16,29,22.80
2011,07,05,16,30,22.90
2011,07,05,16,31,22.90
2011,07,05,16,32,22.90
2011,07,05,16,33,22.80
2011,07,05,16,34,22.80
2011,07,05,16,35,22.70
2011,07,05,16,36,22.70
2011,07,05,16,37,22.60
2011,07,05,16,38,22.50
2011,07,05,16,39,22.50
2011,07,05,16,40,22.40
2011,07,05,16,41,22.50
2011,07,05,16,42,22.60
2011,07,05,16,43,22.70
2011,07,05,16,44,22.90
2011,07,05,16,45,23.00
2011,07,05,16,46,23.10
2011,07,05,16,47,23.10
2011,07,05,16,48,23.00
2011,07,05,16,49,22.90
2011,07,05,16,50,23.00
2011,07,05,16,51,23.10
2011,07,05,16,52,23.10
2011,07,05,16,53,23.00
2011,07,05,16,54,23.10
2011,07,05,16,55,23.10
2011,07,05,16,56,23.10
2011,07,05,16,57,23.10
2011,07,05,16,58,23.00
2011,07,05,16,59,23.00
2011,07,05,17,00,23.10
2011,07,05,17,01,23.20
2011,07,05,17,02,23.10
2011,07,05,17,03,23.10
2011,07,05,17,04,23.00
2011,07,05,17,05,22.90
2011,07,05,17,06,22.80
2011,07,05,17,07,22.60
2011,07,05,17,08,22.60
2011,07,05,17,09,22.60
2011,07,05,17,10,22.60
2011,07,05,17,11,22.60
2011,07,05,17,12,22.50
2011,07,05,17,13,22.30
2011,07,05,17,14,22.20
2011,07,05,17,15,22.10
2011,07,05,17,16,22.00
2011,07,05,17,17,21.90
2011,07,05,17,18,21.90
2011,07,05,17,19,21.80
2011,07,05,17,20,21.80
2011,07,05,17,21,21.80
2011,07,05,17,22,21.80
2011,07,05,17,23,21.90
2011,07,05,17,24,21.90
2011,07,05,17,25,21.80